Погода Николаевск-
на-Амуре

Погода Николаевск-
на-Амуре : погода сейчас, прогноз погоды и архив. Всё, что Вы хотите узнать о погоде Николаевск-
на-Амуре!

Хотите узнать прогноз погоды Николаевск-
на-Амуре? Тогда Вам сюда: Погода Николаевск-
на-Амуре

Поиск расширенной информации на нашем сайте:

Другие новости

Новости СМИ2

Главная страница сайта

Новости сайта

03.07.2017

Напоминаем, что на нашем специализированном сайте Метеоцентр.Азия вы можете получить высокодетализированные автоматические прогнозы погоды по пунктам России, СНГ и мира в авиационном формате (включающие направление и скорость ветра, видимость, явления погоды, количество и форму облачности, нижнюю и верхнюю границу облачности).


Погода Николаевск-
на-Амуре - сегодня

Время (UTC), дата Ветер
(°,м/с) 
Видим.   Явления Облачность Т
(°С)
Тd
(°С)
f(%) Тe
(°С)
Pmin
(гПа)
dP
(гПа)
Po
(мм)
O2
(г/м3)
Тmin Tmax R s Состояние
почвы
21 19.07.17 100 (В) 20000 м    10/10 600 м 
[Sc]
+17.1 +14.4 84 +26  995.1  1.2  742  278  +13        мокрая 
00 20.07.17 130 (ЮВ) 20000 м  слаб. ливневой дождь  10/10 600 м кучево-дожд. 
[Cb cap]
+18.7 +15.3 81 +28  995.8  0.7  743  277           
03 20.07.17 150 (ЮВ) 20000 м  {ливн. осадки}  8/5 600 м кучево-дожд., верхняя 
[Cb cap|Ci fib]
+22.3 +12.7 55 +27  996.4  0.7  743  274           
06 20.07.17 300 (СЗ) 20000 м  слаб. ливневой снег  10/10 600 м кучево-дожд. 
[Cb cap]
+17.7 +15.3 86 +28  998  1.6  745  279           
09 20.07.17 290 (З) 20000 м  {ливн. осадки}  10/10 600 м кучево-дожд. 
[Cb cap]
+19.3 +15.9 81 +30  1000  1.9  746  277    +22.8  0.3     
12 20.07.17 010 (С) 20000 м  {ливн. осадки}  10/10 600 м 
[Sc diur, vesp]
+16.1 +14.5 90 +25  1001.7  1.7  747  281           
15 20.07.17 тихо ()   20000 м    8/8 600 м 
[Sc]
+15.4 +13.5 88 +22  1002.5  0.7  748  283           
18 20.07.17 320 (СЗ) 20000 м    10/10 600 м 
[Sc]
+13.7 +12.6 93 +20  1002.5  748  284           
21 20.07.17 350 (С) 20000 м  {ливн. осадки}  10/8 1500 м верхняя 
[Sc|Ci sp]
+15.4 +14.2 93 +24  1003.3  0.8  748  283  +13.6    0.0    влажная 
00 21.07.17 250 (З) 20000 м  {ливн. осадки}  10/10 600 м 
[Sc]
+19.1 +14.2 73 +27  1003.5  0.3  749  279           
03 21.07.17 220 (ЮЗ) 20000 м    10/6 600 м кучево-дожд., средняя 
[Cb cap|Ac As]
+21.7 +13.7 60 +28  1003.1  -0.3  748  277           
06 21.07.17 020 (С) 3{10}  20000 м    10/10 600 м кучево-дожд. 
[Cb cap]
+18.6 +14.8 79 +27  1003.7  0.5  749  279           
09 21.07.17 050 (СВ) 20000 м    9/9 600 м кучево-дожд. 
[Cb cap]
+15.8 +12.4 80 +22  1005.2  1.4  750  283    +22.8       
12 21.07.17 270 (З) 20000 м    10/10 600 м кучево-дожд. 
[Cb cap]
+13.8 +11.6 87 +18  1006.5  1.3  751  286           
15 21.07.17 340 (С) 20000 м    10/10 600 м кучево-дожд. 
[Cb cap]
+13.2 +10.5 84 +16  1007  0.5  751  287           
18 21.07.17 270 (З) 20000 м    10/10 600 м кучево-дожд. 
[Cb cap]
+12.4 +10.5 88 +16  1007.4  0.4  752  288           
21 21.07.17 270 (З) 20000 м    10/10 600 м кучево-дожд. 
[Cb cap]
+14 +11.8 87 +19  1008.3  0.9  752  286  +12.1        сухая 
00 22.07.17 240 (ЮЗ) 20000 м    10/10 600 м кучево-дожд. 
[Cb cap]
+16.7 +12.4 76 +22  1008.5  0.3  752  283           
03 22.07.17 240 (ЮЗ) 20000 м    8/8 600 м кучево-дожд., средняя 
[Cb cap|Ac trans]
+20.6 +12.5 60 +25  1007.7  -0.8  752  279           
06 22.07.17 260 (З) 20000 м    10/10 600 м кучево-дожд. 
[Cb cap]
+22.5 +11.4 49 +26  1006.6  -1  751  277           
09 22.07.17 110 (В) 20000 м    10/3 600 м верхняя 
[Sc|Ci]
+19.4 +14.9 75 +28  1006.5  -0.2  751  279    +24       
12 22.07.17 070 (В) 20000 м    1/0 верхняя 
[Ci fib]
+16.6 +13.1 80 +23  1006.7  0.2  751  283           
15 22.07.17 010 (С) 20000 м    ясно 
+13.2 +11.7 91 +17  1006.4  -0.4  751  286           
18 22.07.17 010 (С) 20000 м    ясно 
+11 +9.9 93 +13  1005.5  -1  750  289           
21 22.07.17 050 (СВ) 20000 м    3/0 верхняя 
[Ci]
+16.6 +13.6 82 +23  1005  -0.3  750  282  +10.7        сухая 
Время (UTC), дата Ветер
(°,м/с) 
Видим.   Явления Облачность Т
(°С)
Тd
(°С)
f(%) Тe
(°С)
Pmin
(гПа)
dP
(гПа)
Po
(мм)
O2
(г/м3)
Тmin Tmax R s Состояние
почвы

Для получения пояснительной информации подведите курсор к названию столбца.

ПОГОДА Николаевск-
на-Амуре - архив

Всё, что Вы хотите узнать о погоде Николаевск-
на-Амуре - удобно и подробно!

Выберите нужную дату (начиная с 1 января 2015* года) и нажмите кнопку "Найти".
Будут отображены архивные сводки погоды по пункту Николаевск-
на-Амуре, начиная с указанной даты.


Отображать данные в формате CSV (для использования в таблицах Excel)


Внимание! Наш архив погоды предназначен исключительно для личного некоммерческого использования в познавательных целях. Если Вам необходимы официальные справки о состоянии погоды (для производственных, юридических, коммерческих и т.п. целей), обращайтесь в органы Росгидромета.

*Примечание: данная дата относится к архиву по метеостанциям СССР (Россия, СНГ, Балтия).
Архив по метеостанциям Зарубежной Европы и Азии (кроме Китая) хранится 10 дней, по другим регионам земного шара (Китай, Африка, Америка, Австралия, Океания) - 1 день.

Николаевск-
на-Амуре - район местоположения метеостанции


Название, широта, долгота, высота метеостанции:
Николаевск-на-Амуре 53.2°ш. 140.7°д. 68 м над ур. моря [Российская Федерация]

Дополнительная информация

В oтличие oт бoльшинства пoгoдных сайтoв мы публикуем пoдрoбную метеoинфoрмацию в детальнoм прoфессиoнальнoм фoрмате.

Характеристики температуры и влажнoсти вoздуха измеряются на высoте 2 м в тени вдали oт зданий и деревьев.
Скoрoсть ветра измеряется на высoте 10 м (на урoвне рoста челoвека скoрoсть ветра ниже в 1.5-2 раза). Если метеoстанция нахoдится в гoрoде или в лесу, тo скoрoсть ветра занижена на 2-4 м/с пo сравнению с oткрытым местoм. Скoрoсть ветра над акватoриями крупных рек и oзёр, а также на вершинах хoлмoв на 2-5 м/с выше, чем в oбычных услoвиях.
Атмoсфернoе давление в разных тoчках местнoсти мoжет значительнo oтличаться oт давления на метеoстанции, в зависимoсти oт услoвий рельефа (при пoдъёме на 10 м давление пoнижается примернo на 1 мм рт.ст.).